Temp_Advection
nan nan nan nan nan nan nan nan nan nan nan nan nan nan nan nan nan nan nan nan nan nan
nan -0 -1 -1 -0 -1 -1 0 0 -0 -0 -0 -0 -0 0 -0 0 0 -0 -0 -0 nan
nan -0 -0 -0 -1 -0 -0 -0 0 0 0 0 0 0 -0 -0 0 0 0 0 -0 nan
nan -0 -0 -0 -0 -0 -0 -0 -0 0 0 0 0 -0 0 -0 -0 -0 0 -0 -0 nan
nan -0 -0 -0 -0 -0 -0 -0 0 0 0 -0 -0 -0 -0 -0 -0 -0 -0 -0 -0 nan
nan -0 -0 -0 -0 -0 -0 -0 0 -0 -0 -0 -0 -0 -0 -0 -0 -0 -0 -0 -0 nan
nan -0 -0 -0 0 -0 -0 -0 -0 -0 -0 0 -0 -0 -0 -0 0 -0 0 0 -0 nan
nan -0 -0 -0 0 0 0 -0 -0 -0 -0 -0 -0 -0 0 -1 -0 -0 0 0 0 nan
nan -0 0 -0 -0 -0 0 -0 -0 -0 -0 -0 -0 0 -0 -0 -1 -1 -1 -0 0 nan
nan -0 -0 -0 -0 -0 -0 -0 -0 -0 -0 -0 -0 0 -0 0 -0 -1 -1 -0 -0 nan
nan -0 0 0 -0 -0 -0 -0 -0 -0 -0 -0 0 0 -1 -0 -0 -0 -1 -0 -0 nan
nan -0 -0 0 0 0 0 0 0 -0 -0 -0 0 0 -1 -1 -1 -1 -1 -1 -0 nan
nan 0 0 0 0 0 0 0 0 0 -0 -0 -0 0 0 -1 -1 -1 -1 -0 -0 nan
nan nan nan nan nan nan nan nan nan nan nan nan nan nan nan nan nan nan nan nan nan nan
Wind_Speed
18 19 22 24 28 30 28 26 26 15 12 12 11 11 10 9 6 7 8 12 18 23
20 23 29 33 31 24 24 19 15 13 11 8 5 5 6 8 13 10 10 11 11 11
24 26 28 24 22 20 16 14 12 9 8 8 9 10 14 22 18 12 14 12 10 12
20 18 19 19 17 15 14 13 11 11 11 12 15 24 24 14 11 12 11 12 14 15
17 16 17 18 16 14 13 12 11 13 18 23 18 14 14 14 15 15 16 16 17 18
15 18 17 17 17 15 16 17 17 19 18 16 17 18 16 15 16 19 20 20 19 18
16 15 18 19 17 17 16 16 17 20 20 19 19 18 18 18 21 21 19 17 16 16
10 11 14 16 15 16 17 17 17 18 17 18 18 18 20 18 18 19 20 19 19 19
11 13 14 15 17 18 18 17 17 18 18 18 17 20 22 22 19 20 22 23 23 23
12 14 15 17 18 18 18 18 19 18 17 17 17 23 26 27 25 23 24 24 24 24
13 14 16 18 18 18 19 20 19 19 18 20 20 26 28 27 25 22 23 23 23 24
13 14 16 17 18 20 21 20 19 19 20 22 22 24 27 26 22 21 23 22 21 22
13 14 16 17 20 21 22 21 20 20 20 22 21 22 24 20 20 21 21 21 20 20
13 14 15 18 21 23 24 21 21 23 24 20 21 23 22 21 19 19 21 20 20 18
Wind_Direction
319 319 321 320 321 320 318 315 307 298 293 291 293 287 288 276 291 326 320 309 298 307
322 321 320 321 321 316 314 305 295 293 294 296 301 299 287 284 279 314 332 329 320 324
317 318 319 322 321 317 310 304 291 294 287 288 294 297 299 294 297 309 316 315 304 299
322 323 324 322 319 315 306 299 287 289 290 293 289 295 305 305 292 288 290 292 292 290
327 323 322 320 319 312 305 296 291 278 277 295 314 309 296 287 284 281 285 286 289 290
325 318 322 320 313 303 296 286 298 315 313 312 309 304 299 292 287 286 287 289 288 287
320 315 330 330 333 330 323 317 312 309 306 306 306 303 299 294 292 290 289 286 284 282
332 333 327 321 319 317 316 316 314 314 313 311 310 303 290 302 295 294 293 288 286 283
327 329 324 324 323 320 320 321 321 319 317 315 312 295 303 303 299 293 290 289 287 286
320 325 325 324 323 321 322 321 320 319 317 315 312 298 300 301 299 293 289 288 286 287
314 319 323 323 322 321 320 320 319 316 315 313 310 299 305 305 304 296 291 288 287 286
309 312 318 320 321 322 320 320 316 315 314 313 307 304 305 309 307 298 291 290 287 280
297 305 314 318 322 323 322 317 311 310 314 310 313 308 311 316 310 300 298 296 294 291
292 301 312 318 321 322 320 317 310 318 322 321 313 319 316 315 316 309 304 301 298 294
Height
1527 1525 1521 1517 1511 1506 1501 1497 1492 1490 1488 1485 1481 1479 1477 1474 1470 1468 1466 1464 1461 1459
1523 1519 1514 1510 1505 1501 1496 1492 1489 1487 1485 1481 1478 1475 1471 1468 1466 1465 1463 1461 1459 1455
1518 1514 1509 1505 1501 1497 1493 1489 1487 1483 1481 1478 1475 1471 1467 1465 1463 1460 1459 1456 1455 1455
1513 1508 1504 1500 1496 1493 1489 1486 1483 1480 1477 1474 1469 1466 1464 1461 1460 1459 1457 1454 1452 1450
1508 1505 1501 1498 1493 1489 1486 1482 1479 1475 1471 1468 1465 1463 1461 1459 1457 1455 1453 1450 1447 1444
1503 1502 1496 1493 1489 1487 1482 1477 1473 1470 1468 1465 1462 1460 1458 1455 1453 1450 1447 1444 1441 1438
1500 1496 1492 1489 1485 1482 1480 1476 1472 1468 1465 1461 1458 1455 1454 1451 1449 1445 1441 1438 1435 1432
1495 1493 1491 1489 1484 1480 1478 1473 1468 1464 1460 1457 1453 1450 1446 1445 1443 1439 1436 1433 1430 1427
1494 1491 1488 1486 1482 1478 1474 1469 1464 1460 1456 1452 1449 1443 1440 1437 1435 1433 1429 1426 1423 1420
1490 1488 1485 1481 1478 1474 1469 1464 1460 1455 1451 1448 1445 1439 1435 1431 1427 1424 1421 1418 1415 1412
1486 1483 1481 1477 1474 1470 1465 1460 1455 1451 1447 1443 1440 1433 1427 1423 1419 1417 1413 1410 1407 1404
1482 1479 1476 1473 1470 1465 1460 1456 1452 1447 1443 1438 1433 1427 1421 1416 1412 1409 1405 1403 1400 1397
1478 1474 1472 1469 1465 1461 1456 1452 1447 1442 1438 1432 1427 1422 1415 1411 1407 1402 1398 1395 1392 1389
1473 1470 1468 1464 1461 1456 1452 1447 1441 1437 1432 1427 1422 1417 1411 1407 1402 1398 1394 1390 1387 1384